APSTAR 9

Last updated on Sept. 28, 2020, 5:45 a.m. UTC

1 40982U 15059A   20271.87398531 -.00000288  00000-0  00000-0 0  9998
2 40982   0.0161 138.2278 0003130   9.1011 316.4328  1.00273682 18198
UTC
Height (km)
Latitude
Longitude
Inclination
Orbital Period
UTC large
Height (km)
Speed (km/s)
/
Latitude / Longitude
Inclination (degrees)
Orbital Period (minutes)
Azimuth
Elevation
Range (km)
Doppler Factor
iOS Compass Heading
iOS Angle

Next 30 passes for location: Hong Kong

Rise time Rise Azimuth (degrees) Set time Set Azimuth (degrees) Duration Max altitude (degrees)

No matching passes for this satellites